Miscellaneous Local Product
Issued by NWS Hastings, NE

Home | Current Version | Previous Version | Text Only | Print | Product List | Glossary On
Versions: 1 2 3 4 5 6 7 8 9 10 11 12 13 14 15 16 17 18 19 20 21 22 23 24 25 26 27 28 29 30 31 32 33 34 35 36 37 38 39 40 41 42 43 44 45 46 47 48 49 50
000
AXUS43 KGID 031102
MISGRI

GID CWA HOURLY WEATHER ROUNDUP
NATIONAL WEATHER SERVICE HASTINGS NE
600 AM CDT THU SEP 03 2015

NOTE: "FAIR" INDICATES FEW OR NO CLOUDS BELOW 12,000 FEET WITH NO
SIGNIFICANT WEATHER AND/OR OBSTRUCTIONS TO VISIBILITY.

...SOUTH CENTRAL NEBRASKA...

CITY           SKY/WX    TMP DP  RH WIND       PRES   REMARKS
GRAND ISLAND   CLEAR     71  63  75 S10       29.82S
HASTINGS       CLEAR     72  62  71 S8        29.83S
KEARNEY        CLEAR     70  59  68 S3        29.82S
ORD            CLEAR     63  61  93 SE5       29.80S
YORK           CLEAR     68  64  88 S8        29.83S
AURORA         CLEAR     69  65  88 S8        29.82S
LEXINGTON      PTCLDY    69  61  76 SE7       29.82S
HOLDREGE       CLEAR     68  60  75 S6        29.83S
HEBRON         CLEAR     73  62  66 S9        29.84S

...NEBRASKA PANHANDLE...

CITY           SKY/WX    TMP DP  RH WIND       PRES   REMARKS
CHADRON        PTCLDY    64  48  56 S5        29.83R
ALLIANCE       PTCLDY    54  50  86 SW5       29.89S
SCOTTSBLUFF    PTCLDY    60  52  74 N6        29.91S
SIDNEY         CLEAR     56  45  66 NW5       29.93S

...WESTERN AND NORTH CENTRAL NEBRASKA...

CITY           SKY/WX    TMP DP  RH WIND       PRES   REMARKS
VALENTINE      CLEAR     63  59  87 CALM      29.81F
ONEILL         CLEAR     66  65  96 SE7       29.81S
BROKEN BOW     CLEAR     61  58  90 CALM      29.81F
IMPERIAL       CLEAR     61  55  81 CALM      29.85S
NORTH PLATTE   CLEAR     60  58  92 CALM      29.83R
MCCOOK         PTCLDY    63  56  78 E5        29.82R

...EASTERN NEBRASKA...

CITY           SKY/WX    TMP DP  RH WIND       PRES   REMARKS
NORFOLK        CLEAR     65  64  97 E3        29.82S
SO SIOUX CITY  CLEAR     69  65  86 SE8       29.83S
TEKAMAH        CLEAR     70  69  97 SE6       29.83S
COLUMBUS       CLEAR     70  61  73 CALM      29.83S
ALBION         CLEAR     64  62  94 SE3       29.82S
OMAHA EPPLEY   PTCLDY    74  69  85 S13       29.84F
OFFUTT AFB     CLEAR     70  68  93 E8        29.84S
MILLARD        CLEAR     72  69  89 SE5       29.84S
LINCOLN        CLEAR     75  66  73 S12       29.83F
NEBRASKA CITY  PTCLDY    72  65  78 S10       29.87S
BEATRICE       CLEAR     74  65  74 S8        29.86S
FALLS CITY     PTCLDY    75  68  78 S10       29.88S

...NORTHERN KANSAS...

CITY           SKY/WX    TMP DP  RH WIND       PRES   REMARKS
GOODLAND       CLEAR     63  54  72 W6        29.88R
HILL CITY      PTCLDY    74  58  57 S9        29.84R
NORTON         SUNNY     73  55  53 S8        29.82S
PHILLIPSBURG   CLEAR     72  61  68 CALM      29.82S
SMITH CENTER   CLEAR     70  61  73 SE9       29.85R
HAYS           PTCLDY    72  55  56 S10       29.86S
RUSSELL        PTCLDY    75  60  59 S18       29.85R
CONCORDIA      PTCLDY    75  62  64 S17       29.85S
SALINA         PTCLDY    77  61  57 S14       29.87S
TOPEKA         PTCLDY    75  67  76 S3        29.92R



USA.gov is the U.S. government's official web portal to all federal, state and local government web resources and services.